Atlanta Fulton, GA

1:48 PM EDT on August 20, 2017 (GMT -0400)
Fulton County-Brown

Weather History for KFTY - October, 2013

Change the Weather History Date:

Sunday, October 6, 2013

  Actual Average Record
Temperature  
Mean Temperature 72 °F 66 °F  
Max Temperature 84 °F 77 °F 87 °F (2002)
Min Temperature 60 °F 55 °F 43 °F (2010)
Degree Days  
Heating Degree Days 0 2  
Month to date heating degree days 0 11  
Since 1 July heating degree days 0 21  
Cooling Degree Days 7 3  
Month to date cooling degree days 39 21  
Year to date cooling degree days 1601 1702  
Growing Degree Days 22 (Base 50)    
Moisture  
Dew Point 64 °F    
Average Humidity 74    
Maximum Humidity 100    
Minimum Humidity 48    
Precipitation  
Precipitation 2.20 in 0.14 in 2.20 in (2013)
Month to date precipitation 2.20 0.80  
Year to date precipitation 40.20  
Snow  
Snow 0.00 in - - ()
Month to date snowfall 0.0  
Since 1 July snowfall 0.0  
Since 1 September snowfall 0.0  
Snow Depth 0.00 in    
Sea Level Pressure  
Sea Level Pressure 29.94 in    
Wind  
Wind Speed 3 mph (East)    
Max Wind Speed 15 mph    
Max Gust Speed 18 mph    
Visibility 6 miles    
Events Rain , Thunderstorm    
T = Trace of Precipitation, MM = Missing Value Source: NWS Daily Summary

Daily Weather History Graph

Daily Weather History Graph

Search for Another Location

Airport or City:

Trip Planner

Search our weather history database for the weather conditions in past years. The results will help you decide how hot, cold, wet, or windy it might be!

Date:

Astronomy

Oct. 06, 2013 Rise Set
Actual Time 7:36 AM EDT 7:15 PM EDT
Civil Twilight 7:11 AM EDT 7:40 PM EDT
Nautical Twilight 6:42 AM EDT 8:09 PM EDT
Astronomical Twilight 6:13 AM EDT 8:38 PM EDT
Moon 9:13 AM EDT (10/6) 8:21 PM EDT (10/6)
Length of Visible Light 12h 28m
Length of Day
11h 39m
Waxing Crescent, 3% of the Moon is Illuminated
Oct 6
Waxing Crescent
Oct 11
First Quarter
Oct 18
Full
Oct 26
Last Quarter
Nov 3
New

Hourly Weather History & Observations

Time (EDT) Temp. Heat Index Dew Point Humidity Pressure Visibility Wind Dir Wind Speed Gust Speed Precip Events Conditions
12:53 AM 64.9 °F - 63.0 °F 93% 30.01 in 7.0 mi Calm Calm - N/A   Clear
1:53 AM 64.0 °F - 62.1 °F 93% 30.01 in 7.0 mi Calm Calm - N/A   Clear
2:53 AM 63.0 °F - 61.0 °F 93% 29.99 in 4.0 mi Calm Calm - N/A   Clear
3:53 AM 62.1 °F - 60.1 °F 93% 29.98 in 5.0 mi Calm Calm - N/A   Clear
4:53 AM 61.0 °F - 60.1 °F 97% 29.97 in 6.0 mi Calm Calm - N/A   Clear
5:53 AM 61.0 °F - 59.0 °F 93% 29.98 in 6.0 mi Calm Calm - N/A   Clear
6:53 AM 61.0 °F - 60.1 °F 97% 30.00 in 7.0 mi Calm Calm - N/A   Overcast
7:53 AM 63.0 °F - 61.0 °F 93% 30.01 in 6.0 mi Calm Calm - N/A   Overcast
8:53 AM 66.0 °F - 64.0 °F 93% 30.01 in 6.0 mi Calm Calm - N/A   Overcast
9:53 AM 72.0 °F - 66.0 °F 81% 30.00 in 10.0 mi Calm Calm - N/A   Mostly Cloudy
10:53 AM 75.9 °F - 64.9 °F 69% 29.99 in 10.0 mi Calm Calm - N/A   Clear
11:53 AM 80.1 °F 81.7 °F 64.0 °F 58% 29.98 in 10.0 mi South 5.8 mph - N/A   Mostly Cloudy
12:53 PM 81.0 °F 81.9 °F 62.1 °F 52% 29.95 in 10.0 mi SSE 8.1 mph - N/A   Scattered Clouds
1:53 PM 82.0 °F 83.0 °F 62.1 °F 51% 29.93 in 10.0 mi SE 8.1 mph - N/A   Mostly Cloudy
2:53 PM 84.0 °F 84.9 °F 63.0 °F 49% 29.89 in 10.0 mi SSE 6.9 mph - N/A   Mostly Cloudy
3:53 PM 82.9 °F 83.7 °F 62.1 °F 49% 29.87 in 10.0 mi SSE 8.1 mph - N/A   Mostly Cloudy
4:53 PM 82.0 °F 83.1 °F 63.0 °F 52% 29.86 in 10.0 mi SE 8.1 mph - N/A   Overcast
5:53 PM 80.1 °F 81.7 °F 64.0 °F 58% 29.86 in 10.0 mi ESE 4.6 mph - N/A   Overcast
6:27 PM 73.4 °F - 69.8 °F 88% 29.91 in 2.5 mi SW 5.8 mph - 0.08 in Rain Heavy Rain
6:37 PM 71.6 °F - 69.8 °F 94% 29.91 in 1.8 mi WSW 11.5 mph 16.1 mph 0.22 in Rain Heavy Rain
6:45 PM 71.6 °F - 69.8 °F 94% 29.92 in 1.2 mi West 10.4 mph 16.1 mph 0.38 in Rain Heavy Rain
6:53 PM 70.0 °F - 69.1 °F 97% 29.91 in 0.8 mi West 10.4 mph - 0.73 in Rain Heavy Rain
7:01 PM 69.8 °F - 69.8 °F 100% 29.93 in 0.8 mi WSW 4.6 mph - 0.30 in Rain , Thunderstorm Heavy Thunderstorms and Rain
7:28 PM 69.8 °F - 68.0 °F 94% 29.93 in 7.0 mi WNW 6.9 mph - 0.50 in Rain Light Rain
7:46 PM 69.8 °F - 66.2 °F 88% 29.92 in 8.0 mi NNW 6.9 mph - 0.51 in Rain Rain
7:53 PM 68.0 °F - 66.0 °F 93% 29.91 in 8.0 mi Calm Calm - 0.52 in Rain Rain
8:07 PM 66.2 °F - 64.4 °F 94% 29.93 in 2.5 mi Variable 3.5 mph - 0.09 in Rain Heavy Rain
8:17 PM 68.0 °F - 66.2 °F 94% 29.93 in 4.0 mi East 4.6 mph - 0.15 in Rain Heavy Rain
8:37 PM 66.2 °F - 64.4 °F 94% 29.93 in 2.0 mi NNE 3.5 mph - 0.33 in Rain Heavy Rain
8:43 PM 66.2 °F - 64.4 °F 94% 29.93 in 1.8 mi NNE 5.8 mph - 0.41 in Rain Heavy Rain
8:51 PM 66.2 °F - 64.4 °F 94% 29.93 in 3.0 mi NE 4.6 mph - 0.47 in Rain Heavy Rain
8:53 PM 66.0 °F - 64.9 °F 96% 29.91 in 3.0 mi NE 3.5 mph - 0.48 in Rain Heavy Rain
9:23 PM 66.2 °F - 64.4 °F 94% 29.93 in 3.0 mi ENE 3.5 mph - 0.16 in Rain Rain
9:53 PM 66.0 °F - 64.9 °F 96% 29.90 in 3.0 mi East 8.1 mph - 0.39 in Rain Heavy Rain
10:28 PM 66.2 °F - 64.4 °F 94% 29.91 in 8.0 mi NE 3.5 mph - 0.07 in Rain Rain
10:53 PM 66.0 °F - 64.9 °F 96% 29.89 in 10.0 mi North 4.6 mph - 0.08 in Rain Light Rain
11:51 PM 66.2 °F - 64.4 °F 94% 29.89 in 10.0 mi ENE 4.6 mph - 0.00 in   Scattered Clouds
11:53 PM 66.0 °F - 64.0 °F 93% 29.86 in 10.0 mi Variable 3.5 mph - 0.00 in   Scattered Clouds